Location: Newark
(46.7000°N, 60.6000°W)
Time: 04:34:28
(UTC+00:00)

A-11 Canister half - Pass Details

Date: 05 November 2020
Orbit: 1525 x 1683 km, 47.3° (Epoch: 23 November)

Event Time Altitude Azimuth Distance (km) Brightness Sun altitude
Rises 23:57:25 0° 290° (WNW) 4,704 12.6 -33.8°
Reaches altitude 10° 00:01:15 10° 277° (W) 3,705 11.8 -34.4°
Maximum altitude 00:08:01 23° 230° (SW) 2,790 10.6 -35.5°
Enters shadow 00:13:33 13° 188° (S) 3,418 10.7 -36.4°
Drops below altitude 10° 00:14:47 10° 182° (S) 3,688 - -36.6°
Sets 00:18:37 0° 169° (S) 4,677 - -37.3°
